Cloud_Cover
100 30 4 0 5 4 5 71 100 69 88 81 92 100 100 100 100 100 100 100 100 100 100 29 0 0 1 70 1 3 0 0 0 0 0 0 0 0 0 0 0 5 2 4 0 5 0 0 0
100 98 100 13 52 5 6 5 92 37 38 100 100 82 100 100 100 100 100 100 100 100 60 5 1 5 5 0 0 0 0 0 0 0 0 0 0 1 3 0 4 4 100 78 5 11 0 0 0
94 100 100 100 100 40 8 5 5 10 100 100 100 100 100 100 100 100 100 100 100 99 35 90 33 0 2 0 0 0 0 1 0 0 0 0 0 4 1 4 5 17 15 35 100 74 0 0 0
95 69 86 100 100 100 100 100 94 29 6 12 77 100 100 100 100 100 100 100 100 31 21 31 6 5 3 4 98 98 12 1 4 0 0 0 2 5 5 5 0 5 8 100 1 0 0 1 0
93 100 92 99 100 100 100 98 100 41 25 73 98 98 100 100 100 100 100 89 99 47 6 5 15 4 9 100 100 94 5 4 2 0 0 0 5 5 5 0 3 5 12 5 0 3 5 0 0
95 60 72 100 100 100 60 85 100 83 80 95 87 96 85 100 68 100 100 92 13 76 100 78 13 5 5 6 19 6 41 5 1 0 0 4 0 5 10 5 5 5 3 4 8 57 4 0 0
100 100 82 100 100 99 52 98 100 97 5 32 100 69 98 100 100 99 100 100 100 98 33 66 51 18 5 5 5 14 5 5 5 5 5 5 60 5 5 1 4 4 23 53 98 48 0 0 0
100 100 81 98 100 100 100 31 5 80 100 96 97 96 87 29 89 100 100 98 66 89 98 99 100 59 22 12 7 10 88 9 52 24 8 11 5 7 4 5 3 5 5 97 5 4 5 5 8
100 100 100 100 100 100 100 18 5 56 60 100 100 100 100 100 49 69 98 61 46 7 6 79 76 65 99 100 90 18 100 100 100 84 14 5 27 10 2 5 5 5 5 25 6 38 17 2 5
96 34 89 100 100 100 100 38 14 44 6 79 100 97 95 98 43 39 93 27 13 82 94 97 100 100 100 64 59 74 100 100 90 100 57 100 80 5 5 3 5 5 5 5 5 38 77 54 54
100 43 98 100 100 100 100 89 10 5 54 100 99 10 49 62 8 53 44 5 79 75 5 34 66 89 35 25 5 64 100 100 100 100 100 100 6 5 0 3 5 5 5 5 5 8 5 68 72
100 97 100 100 100 100 100 100 8 5 82 100 100 100 10 78 100 76 88 9 5 4 4 4 5 10 5 5 31 100 100 100 100 100 53 5 5 1 0 1 5 5 5 5 10 6 5 70 24
13 82 100 100 100 76 48 97 77 33 8 100 100 100 98 100 100 100 100 100 77 33 10 5 21 74 92 44 100 93 91 100 100 100 54 26 13 1 0 0 5 5 5 5 74 5 5 5 28
100 100 100 100 100 99 89 100 100 7 5 13 54 100 91 99 87 59 97 100 100 17 5 4 54 95 100 100 100 100 100 100 100 100 25 6 1 5 0 0 4 5 5 5 98 5 5 0 41
100 98 100 100 76 100 100 100 100 100 64 5 5 5 6 20 100 11 100 100 100 97 100 100 100 100 100 100 100 100 100 100 100 67 13 5 5 4 0 3 5 5 5 99 64 22 14 5 40
100 100 100 100 100 100 100 87 100 100 100 100 77 92 6 5 5 64 96 97 100 100 100 100 100 100 100 100 97 100 100 100 79 5 5 9 4 1 0 14 5 31 38 100 100 100 81 5 15
0 2 77 100 100 100 100 19 95 100 100 100 98 98 96 99 86 35 11 5 76 100 100 100 100 100 100 91 44 78 100 100 20 5 5 5 4 0 4 5 70 68 67 66 100 100 94 99 100
0 0 0 9 100 100 100 19 54 100 100 100 100 71 95 84 87 100 70 4 5 78 100 100 98 100 99 66 100 100 100 96 25 5 4 1 0 4 10 5 100 84 85 100 99 91 71 100 98
0 0 0 0 0 72 94 53 72 100 100 99 12 100 15 46 90 100 63 5 18 60 100 100 100 97 90 100 97 100 43 5 5 4 0 0 5 5 5 36 84 72 78 100 35 89 78 100 100
0 0 0 0 0 0 0 1 99 100 100 100 45 7 5 61 30 36 5 12 71 5 6 15 99 100 100 89 52 62 15 5 5 3 4 5 5 25 48 20 20 33 72 98 72 100 76 100 100
0 0 0 0 0 5 0 0 0 100 100 100 100 88 5 5 12 62 60 13 4 3 14 5 12 61 26 5 5 5 5 3 4 0 5 5 9 35 54 42 18 32 39 73 97 91 46 14 72
4 0 0 0 19 26 1 2 0 2 100 100 100 94 98 74 89 100 100 5 4 1 5 5 5 8 5 5 5 5 0 0 0 5 4 9 27 82 100 94 39 100 56 60 50 5 4 5 98
20 34 6 5 5 7 17 23 0 0 0 22 98 100 100 100 100 98 29 5 33 36 5 5 34 33 5 5 5 0 0 0 0 0 5 6 84 100 100 100 100 100 59 5 4 16 7 39 43
100 75 100 98 77 94 5 50 1 0 0 3 0 2 73 97 100 98 27 27 99 95 24 5 6 5 0 0 0 0 14 6 20 5 42 100 100 100 100 94 100 92 0 0 20 34 15 3 1
100 100 100 100 100 85 83 100 30 1 3 16 0 0 0 0 91 98 100 100 100 100 100 84 5 22 34 5 4 24 78 1 0 33 88 100 100 100 100 99 62 14 62 4 25 0 21 12 0
100 100 100 100 100 100 100 99 89 8 76 12 0 0 0 0 0 7 50 100 100 98 26 5 5 5 20 5 9 6 2 0 15 25 61 76 98 92 94 9 16 30 26 64 7 18 11 2 4
73 99 96 100 75 100 100 97 93 76 79 0 0 0 0 0 0 0 3 85 98 44 3 0 0 2 0 1 0 7 2 15 10 78 20 74 98 94 45 79 37 67 41 37 3 1 0 27 88
81 92 98 95 70 100 100 75 100 62 93 10 5 2 0 5 4 0 0 0 0 0 0 6 11 2 3 5 15 75 99 72 28 85 99 96 41 40 71 31 17 59 36 40 6 0 0 24 22
100 100 75 96 45 99 100 100 100 41 1 56 4 4 4 0 10 0 0 0 0 1 15 26 20 14 68 98 100 100 100 92 100 100 100 78 56 54 33 23 31 28 15 3 1 26 47 23 92
100 100 100 100 100 52 100 98 100 100 100 36 64 5 9 3 15 0 0 0 8 35 24 34 39 45 100 100 100 100 96 100 100 100 95 13 3 0 3 6 2 0 0 10 41 24 45 100 100